Location: Avully
(45.9633°N, 6.0228°E)
Time: 20:36:12
(UTC+00:00)

Cosmos 2360 Rocket - Pass Details

Date: 16 August 2024
Orbit: 834 x 843 km, 71.0° (Epoch: 10 September)

Event Time Altitude Azimuth Distance (km) Brightness Sun altitude
Exits shadow 23:21:01 66° 6° (N) 916 2.4 -30.6°
Drops below altitude 10° 23:25:55 10° 25° (NNE) 2,468 5.3 -30.6°
Sets 23:28:22 0° 26° (NNE) 3,405 6.2 -30.6°
